Regional Weather Roundup
Issued by NWS

Home | Current Version | Previous Version | Text Only | Print | Product List | Glossary Off
Versions: 1 2 3 4 5 6 7 8 9 10 11 12 13 14 15 16 17 18 19 20 21 22 23 24 25 26 27 28 29 30 31 32 33 34 35 36 37 38 39 40 41 42 43 44 45 46 47 48 49 50

000
ASUS45 KCYS 252110
RWRWY

WYOMING REGIONAL WEATHER ROUNDUP
NATIONAL WEATHER SERVICE CHEYENNE WY
300 PM MDT TUE APR 25 2017

NOTE:  "FAIR" INDICATES FEW OR NO CLOUDS BELOW 12,000 FEET
WITH NO SIGNIFICANT WEATHER AND/OR OBSTRUCTIONS TO VISIBILITY.

WYZ001-252200-
YELLOWSTONE NATIONAL PARK

CITY           SKY/WX    TMP DP  RH WIND       PRES   REMARKS
LK YELLOWSTONE   N/A     40  26  57 VRB7      29.80R
W YELLOWSTONE  NOT AVBL

$$
WYZ002>013-054>058-071-098>099-252200-
NORTHERN WYOMING

CITY           SKY/WX    TMP DP  RH WIND       PRES   REMARKS
JACKSON        PTSUNNY   45  28  53 W6        29.76R
CODY           CLOUDY    40  34  79 N7        29.83R
GREYBULL       FAIR      46  29  51 NW23G32   29.77R
WORLAND        FAIR      48  37  65 NW20G30   29.76R
SHERIDAN       CLOUDY    36  30  79 NW8       29.86R WCI  30
BUFFALO        NOT AVBL
GILLETTE       SNOW      28  28 100 N16       29.81R WCI  16
HULETT         LGT SNOW  28  27  93 N8        29.82R VSB 1   WCI  20
NEWCASTLE      MIX PCPN  34  34 100 CALM      29.73R

$$
WYZ014>020-022>026-101>103-252200-
CENTRAL WYOMING

CITY           SKY/WX    TMP DP  RH WIND       PRES   REMARKS
BIG PINEY      CLOUDY    44  28  53 NE16G25   29.75R
PINEDALE       MOCLDY    41  30  65 NW8       29.76R
DUBOIS         CLOUDY    43  16  33 CALM      29.73S
LANDER         FLURRIES  38  32  79 NW13      29.79R WCI  30
RIVERTON       CLOUDY    41  31  67 N17G29    29.79R
CASPER         LGT SNOW  30  26  85 N17       29.80R FOG     WCI  18
DOUGLAS        LGT SNOW  32  26  78 NW26G32   29.76R WCI  18

$$
WYZ021-027>030-104>119-252200-
SOUTHERN WYOMING

CITY           SKY/WX    TMP DP  RH WIND       PRES   REMARKS
EVANSTON       CLOUDY    42  27  55 W18G25    29.81S
KEMMERER         N/A     37  30  75 W21G26    29.80R WCI  27
FORT BRIDGER   CLOUDY    46  30  54 W21G28    29.82R
ROCK SPRINGS   SNOW      33  31  92 NE7       29.78R VSB 1/2 WCI  27
DIXON            N/A     42  33  70 NW16      29.75R
RAWLINS        LGT SNOW  36  29  75 N13       29.75R WCI  27
SARATOGA       LGT SNOW  34  32  93 N18G24    29.75R WCI  23
LARAMIE        LGT SNOW  32  28  85 NW21G30   29.69R FOG     WCI  20
CHEYENNE       FAIR      47  30  51 NW24G31   29.63R
TORRINGTON     CLOUDY    41  35  79 NE15      29.67R
PINE BLUFFS    FAIR      50  37  62 N17G29    29.62R

$$



USA.gov is the U.S. government's official web portal to all federal, state and local government web resources and services.